Regional Weather Roundup
Issued by NWS

Home | Current Version | Previous Version | Text Only | Print | Product List | Glossary On
Versions: 1 2 3 4 5 6 7 8 9 10 11 12 13 14 15 16 17 18 19 20 21 22 23 24 25 26 27 28 29 30 31 32 33 34 35 36 37 38 39 40 41 42 43 44 45 46 47 48 49 50
000
ASUS45 KPSR 230310
RWRAZ

ARIZONA REGIONAL HOURLY WEATHER ROUNDUP
NATIONAL WEATHER SERVICE PHOENIX AZ
800 PM MST WED OCT 22 2014

NOTE: FAIR INDICATES FEW OR NO CLOUDS BELOW 12,000 FEET WITH NO
SIGNIFICANT WEATHER AND/OR OBSTRUCTIONS TO VISIBILITY.

AZZ001>003-036-230400-
NORTHWEST ARIZONA

CITY           SKY/WX    TMP DP  RH WIND       PRES   REMARKS
BULLHEAD CITY  PTCLDY    81  37  21 E5        29.93R
KINGMAN        CLEAR     59  39  47 S5        30.09R
$$

AZZ004>008-015-016-018-230400-
NORTH CENTRAL ARIZONA

CITY           SKY/WX    TMP DP  RH WIND       PRES   REMARKS
GRAND CANYON   CLEAR     42  29  59 CALM      30.26R
PRESCOTT       CLEAR     58  40  51 CALM      30.17R
FLAGSTAFF      CLEAR     45  34  65 CALM      30.29R
PAGE           CLEAR     66  37  34 SW3       30.11R
$$

AZZ009>014-017-230400-
NORTHEAST ARIZONA

CITY           SKY/WX    TMP DP  RH WIND       PRES   REMARKS
WINSLOW        CLEAR     60  36  40 CALM      30.16R
SAINT JOHNS    CLEAR     56  41  57 CALM      30.19R
WINDOW ROCK    PTCLDY    49  32  52 CALM      30.26R
SHOW LOW       CLEAR     54  39  58 S8        30.27R
$$

AZZ023-230400-
GREATER PHOENIX AREA

CITY           SKY/WX    TMP DP  RH WIND       PRES   REMARKS
PHOENIX        PTCLDY    82  52  35 CALM      29.92R
BUCKEYE          N/A     73  45  35 N5        29.93R
GLENDALE       PTCLDY    79  55  44 CALM      29.94R
LUKE AFB       CLEAR     77  53  43 W6        29.92R
DEER VALLEY    CLEAR     77  50  38 CALM      29.95R
SCOTTSDALE     CLEAR     81  49  32 CALM      29.96R
MESA-GATEWAY   CLEAR     79  48  34 CALM      29.96R
CHANDLER       PTCLDY    79  50  36 VRB6      29.94R
$$

AZZ027-028-230400-
SOUTHWEST MARICOPA COUNTY AND PINAL COUNTY

CITY           SKY/WX    TMP DP  RH WIND       PRES   REMARKS
CASA GRANDE    CLEAR     73  45  35 CALM      29.95S
GILA BEND      FAIR      80  44  28 CALM      29.93R
$$

AZZ503-504-507>509-230400-
SOUTHEAST ARIZONA

CITY           SKY/WX    TMP DP  RH WIND       PRES   REMARKS
TUCSON         CLEAR     78  47  33 NW7       30.02R
DAVIS-MONTHAN  CLEAR     76  48  37 NW6       30.01R
RYAN FIELD       N/A     73  52  46 NW6       30.02R
NOGALES        CLEAR     67  45  45 NE7       30.08R
SIERRA VISTA   CLEAR     63  43  48 SW8       30.14R
DOUGLAS        CLEAR     61  46  57 N9        30.11R
SAFFORD        CLEAR     69  51  52 CALM      30.04R
$$

AZZ020-021-025-026-031-230400-
SOUTHWEST ARIZONA

CITY           SKY/WX    TMP DP  RH WIND       PRES   REMARKS
YUMA           PTCLDY    85  49  28 CALM      29.87R
$$

CAZ031-033-041-043-047-048-061-230400-
SOUTHERN CALIFORNIA

CITY           SKY/WX    TMP DP  RH WIND       PRES   REMARKS
DOWNTOWN L.A.  CLEAR     70  63  78 CALM      29.93R
L.A. AIRPORT   PTCLDY    69  61  75 W6        29.94R
SAN DIEGO      PTCLDY    70  63  78 W5        29.94R
BURBANK        CLEAR     73  54  51 E5        29.94R
ONTARIO        MOCLDY    75  58  55 W6        29.94R
RIVERSIDE      CLEAR     75  49  39 CALM      29.95R
PALM SPRINGS   CLEAR     82  38  20 CALM      29.92R
EL CENTRO NAS  PTCLDY    80  45  28 W3        29.87R
IMPERIAL       CLEAR     76  49  38 NW3       29.86R
BLYTHE         CLEAR     82  46  28 NE6       29.89R
NEEDLES        CLEAR     80  42  25 W8        29.93R
$$

NVZ020-UTZ003-230400-
SOUTHERN NEVADA-UTAH

CITY           SKY/WX    TMP DP  RH WIND       PRES   REMARKS
LAS VEGAS      MOCLDY    77  29  17 S5        29.98R
SALT LAKE CITY PTCLDY    51  35  54 CALM      30.17S
$$

NMZ009-TXZ055-230400-
NEW MEXICO-WEST TEXAS

CITY           SKY/WX    TMP DP  RH WIND       PRES   REMARKS
ALBUQUERQUE    PTCLDY    61  41  47 SE6       30.17R
EL PASO        CLEAR     66  55  67 CALM      30.11R
$$


........................KEY........................
SKY/WX - SKY CONDITION/WEATHER
TMP    - TEMPERATURE IN FAHRENHEIT
DP     - DEW POINT IN FAHRENHEIT
RH     - RELATIVE HUMIDITY IN PERCENT
WIND   - DIRECTION AND SPEED IN MILES PER HOUR (MPH)
VRB    - VARIABLE WIND DIRECTION
PRES   - MEAN SEA LEVEL PRESSURE IN INCHES OF MERCURY
         F - FALLING PRESSURE   R - RISING PRESSURE
         S - STEADY PRESSURE
VSB    - VISIBILITY IN MILES
HX     - HEAT INDEX IN FAHRENHEIT
WCI    - WIND CHILL INDEX IN FAHRENHEIT
TC     - TEMPERATURE IN CELSIUS WHICH IS ALSO KNOWN AS
         TEMPERATURE IN CENTIGRADE
AFB    - AIR FORCE BASE
         LUKE AFB IS LUKE AIR FORCE BASE
         DAVIS-MONTHAN IS DAVIS-MONTHAN AIR FORCE BASE
NAS    - NAVAL AIR STATION
         EL CENTRO NAS IS EL CENTRO NAVAL AIR STATION
N/A    - NOT AVAILABLE



USA.gov is the U.S. government's official web portal to all federal, state and local government web resources and services.